DW5546 Farrera ES current weather conditions

sailwx.info

Wind from 135

Air temperature 16.7° C
Dewpoint 10.9° C

Last reported at 2019-Sep-16 21:00 UTC.
Time now 2019-Sep-16 22:13 UTC

Location: N 42°30' E 001°16'.
View on Google Maps.

See reports from other nearby stations

  
Tides and Currents Weather Stations Pressure Air Temp Water Temp Dewpoint Dewpoint Depression Visibility Wind Speed Wind Dir Waves Ship Positions
date/time (UTC)wind fromknots sea level pressurealtimeterstation pressurevisibilityair tempwater tempwave heightnotes
2019-Sep-16 21:00 135 16.7
2019-Sep-16 20:45 134 16.7
2019-Sep-16 20:30 134 16.7
2019-Sep-16 20:15 134 17.2
2019-Sep-16 20:01 149 17.2
2019-Sep-16 19:45 149 17.2
2019-Sep-16 19:31 150 17.8
2019-Sep-16 19:15 158 18.3
2019-Sep-16 19:00 221 18.3
2019-Sep-16 18:45 221 18.9
2019-Sep-16 18:31 221 19.4
2019-Sep-16 18:15 120 19.4
2019-Sep-16 18:00 132 19.4
2019-Sep-16 17:45 114 19.4
2019-Sep-16 17:30 150 20.6
2019-Sep-16 17:15 103 21.7
2019-Sep-16 17:00 133 22.8
2019-Sep-16 16:46 134 1 gusting 5 22.8
2019-Sep-16 16:30 159 0 gusting 4 21.7
2019-Sep-16 16:15 064 21.1
2019-Sep-16 16:00 148 21.1
2019-Sep-16 15:46 025 21.7
2019-Sep-16 15:30 163 21.7
2019-Sep-16 15:15 146 2 gusting 6 22.2
2019-Sep-16 15:00 171 2 gusting 6 22.8
2019-Sep-16 14:45 225 2 gusting 6 23.9
2019-Sep-16 14:30 352 1 gusting 6 24.4
2019-Sep-16 14:15 193 0 gusting 5 24.4
2019-Sep-16 14:00 160 2 gusting 6 24.4
2019-Sep-16 13:46 212 2 gusting 6 25.6
2019-Sep-16 13:30 110 2 gusting 5 25.6
2019-Sep-16 13:15 130 3 gusting 9 25.6
2019-Sep-16 13:00 171 0 gusting 6 26.1
2019-Sep-16 12:45 249 25.0
2019-Sep-16 12:32 338 25.0
2019-Sep-16 12:17 126 24.4
2019-Sep-16 12:01 236 24.4
2019-Sep-16 11:46 273 23.9
2019-Sep-16 11:31 250 23.9
2019-Sep-16 11:16 266 23.9
2019-Sep-16 11:02 275 23.3
2019-Sep-16 10:46 316 22.2
2019-Sep-16 10:31 246 22.2
2019-Sep-16 10:16 127 21.7
2019-Sep-16 10:01 167 21.7
2019-Sep-16 09:45 227 21.1
2019-Sep-16 09:30 260 20.0
2019-Sep-16 09:15 242 18.9
2019-Sep-16 09:00 255 18.3
2019-Sep-16 08:45 169 17.2
2019-Sep-16 08:31 169 16.1
2019-Sep-16 08:15 169 15.0
2019-Sep-16 08:00 169 14.4
2019-Sep-16 07:45 162 13.9
2019-Sep-16 07:30 163 13.3
2019-Sep-16 07:15 163 13.3
2019-Sep-16 07:00 156 12.8
2019-Sep-16 06:45 156 12.8
2019-Sep-16 06:30 157 12.8
2019-Sep-16 06:15 156 12.8
2019-Sep-16 06:00 169 12.8
2019-Sep-16 05:45 146 13.3
2019-Sep-16 05:30 145 13.3
2019-Sep-16 05:15 145 13.3
2019-Sep-16 05:00 145 12.8
2019-Sep-16 04:47 146 12.8
2019-Sep-16 04:32 132 12.8
2019-Sep-16 04:17 132 12.8
2019-Sep-16 04:02 132 12.8
2019-Sep-16 03:46 124 12.8
2019-Sep-16 03:31 125 12.8
2019-Sep-16 03:16 124 12.8
2019-Sep-16 03:03 124 12.8
2019-Sep-16 02:46 125 13.3
2019-Sep-16 02:31 125 13.3
2019-Sep-16 02:16 125 13.9
2019-Sep-16 02:01 167 13.9
2019-Sep-16 01:46 105 13.9
2019-Sep-16 01:31 120 13.9
2019-Sep-16 01:16 122 13.9
2019-Sep-16 01:01 206 13.9
2019-Sep-16 00:47 082 14.4
2019-Sep-16 00:31 082 14.4
2019-Sep-16 00:17 081 14.4
2019-Sep-16 00:00 143 14.4
2019-Sep-15 23:46 075 15.0
2019-Sep-15 23:30 074 15.0
2019-Sep-15 23:15 085 15.0
2019-Sep-15 23:00 099 15.6
2019-Sep-15 22:46 023 15.6
2019-Sep-15 22:30 086 15.6
2019-Sep-15 22:15 143 15.6
2019-Sep-15 22:00 109 15.6
2019-Sep-15 21:45 056 15.6
2019-Sep-15 21:31 103 16.1
2019-Sep-15 21:15 104 16.1
2019-Sep-15 21:00 056 16.1
2019-Sep-15 20:45 134 16.7
2019-Sep-15 20:30 083 16.7
2019-Sep-15 20:15 062 16.7
2019-Sep-15 20:00 126 16.7
2019-Sep-15 19:45 064 16.7
2019-Sep-15 19:30 079 17.2
2019-Sep-15 19:15 047 17.8
2019-Sep-15 19:00 081 17.8
2019-Sep-15 18:45 115 18.3
2019-Sep-15 18:30 091 18.9
2019-Sep-15 18:15 120 19.4
2019-Sep-15 18:00 092 20.0
2019-Sep-15 17:45 122 21.1
2019-Sep-15 17:30 107 21.7
2019-Sep-15 17:15 211 22.8
2019-Sep-15 17:00 020 23.3
2019-Sep-15 16:45 174 23.3
2019-Sep-15 16:30 208 1 gusting 6 23.9
2019-Sep-15 16:15 088 1 gusting 6 24.4
2019-Sep-15 16:00 195 4 gusting 9 24.4
2019-Sep-15 15:45 145 2 gusting 8 23.9
2019-Sep-15 15:30 207 0 gusting 7 23.9
2019-Sep-15 15:15 125 2 gusting 8 23.3
2019-Sep-15 15:00 176 3 gusting 10 24.4
2019-Sep-15 14:45 215 5 gusting 8 25.0
2019-Sep-15 14:30 155 0 gusting 6 25.0
2019-Sep-15 14:15 150 2 gusting 7 25.6
2019-Sep-15 14:01 162 2 gusting 5 26.1
2019-Sep-15 13:46 211 1 gusting 4 26.1
2019-Sep-15 13:31 250 0 gusting 5 25.6
2019-Sep-15 13:16 136 0 gusting 3 25.6
2019-Sep-15 13:01 032 1 gusting 5 24.4
2019-Sep-15 12:46 222 0 gusting 3 24.4
2019-Sep-15 12:31 278 23.9
2019-Sep-15 12:16 211 0 gusting 4 23.3
2019-Sep-15 12:01 280 22.2
2019-Sep-15 11:46 238 0 gusting 2 22.2
2019-Sep-15 11:31 225 21.7
2019-Sep-15 11:15 238 20.6
2019-Sep-15 11:00 238 20.0
2019-Sep-15 10:46 232 18.9
2019-Sep-15 10:30 236 18.9
2019-Sep-15 10:16 226 18.9
2019-Sep-15 10:00 173 17.8
2019-Sep-15 09:45 127 17.2
2019-Sep-15 09:30 207 18.3
2019-Sep-15 09:15 207 17.8
2019-Sep-15 09:00 201 16.1
2019-Sep-15 08:45 201 15.0
2019-Sep-15 08:31 201 13.9
2019-Sep-15 08:15 200 13.3
2019-Sep-15 08:00 200 12.8
2019-Sep-15 07:45 200 12.8
2019-Sep-15 07:30 200 12.2
2019-Sep-15 07:15 200 12.2
2019-Sep-15 07:00 200 12.2
2019-Sep-15 06:45 206 12.2
2019-Sep-15 06:30 130 11.7
2019-Sep-15 06:15 130 11.7
2019-Sep-15 06:00 074 11.7
2019-Sep-15 05:47 137 11.7
2019-Sep-15 05:31 121 11.7
2019-Sep-15 05:16 139 11.7
2019-Sep-15 05:02 139 12.2
2019-Sep-15 04:46 188 12.2
2019-Sep-15 04:31 277 12.2
2019-Sep-15 04:17 208 12.2
2019-Sep-15 04:01 208 12.2
2019-Sep-15 03:46 198 12.2
2019-Sep-15 03:31 215 0 gusting 5 12.2
2019-Sep-15 03:16 110 12.2
2019-Sep-15 03:01 172 0 gusting 3 12.8
2019-Sep-15 02:46 252 12.8
2019-Sep-15 02:32 308 12.8
2019-Sep-15 02:16 235 13.3
2019-Sep-15 02:01 167 13.3
2019-Sep-15 01:46 264 13.3
2019-Sep-15 01:31 231 13.3
2019-Sep-15 01:16 155 12.2
2019-Sep-15 01:01 270 12.8
2019-Sep-15 00:46 053 12.8
2019-Sep-15 00:30 172 12.8
2019-Sep-15 00:15 068 13.3
2019-Sep-15 00:01 053 12.8
2019-Sep-14 23:46 106 13.3
2019-Sep-14 23:32 134 13.3
2019-Sep-14 23:16 293 13.9
2019-Sep-14 23:01 193 0 gusting 4 14.4
2019-Sep-14 22:45 137 1 gusting 7 15.6
2019-Sep-14 22:30 046 1 gusting 12 16.7
2019-Sep-14 22:15 117 4 gusting 11 16.1
2019-Sep-14 22:00 078 3 gusting 11 17.8